Cadillac, MI

4:18 PM EST on February 20, 2017 (GMT -0500)
Wexford County

Weather History for KCAD - July, 2014

Change the Weather History Date:

Thursday, July 31, 2014

  Actual Average Record
Temperature  
Mean Temperature 62 °F -  
Max Temperature 75 °F 78 °F 96 °F (2006)
Min Temperature 48 °F 53 °F 35 °F (1952)
Degree Days  
Heating Degree Days 4    
Growing Degree Days 12 (Base 50)    
Moisture  
Dew Point 52 °F    
Average Humidity 72    
Maximum Humidity 98    
Minimum Humidity 41    
Precipitation  
Precipitation 0.00 in - - ()
Sea Level Pressure  
Sea Level Pressure 29.99 in    
Wind  
Wind Speed 3 mph (WSW)    
Max Wind Speed 12 mph    
Max Gust Speed 17 mph    
Visibility 10 miles    
Events      
Averages and records for this station are not official NWS values.
T = Trace of Precipitation, MM = Missing Value Source: NWS Daily Summary

Daily Weather History Graph

Daily Weather History Graph

Search for Another Location

Airport or City:

Trip Planner

Search our weather history database for the weather conditions in past years. The results will help you decide how hot, cold, wet, or windy it might be!

Date:

Astronomy

Jul. 31, 2014 Rise Set
Actual Time 6:27 AM EDT 9:07 PM EDT
Civil Twilight 5:54 AM EDT 9:40 PM EDT
Nautical Twilight 5:12 AM EDT 10:22 PM EDT
Astronomical Twilight 4:24 AM EDT 11:10 PM EDT
Moon 11:06 AM EDT (7/31) 11:07 PM EDT (7/31)
Length of Visible Light 15h 45m
Length of Day
14h 39m
Waxing Crescent, 19% of the Moon is Illuminated
Jul 31
Waxing Crescent
Aug 3
First Quarter
Aug 10
Full
Aug 17
Last Quarter
Aug 25
New

Hourly Weather History & Observations

Time (EDT) Temp. Dew Point Humidity Pressure Visibility Wind Dir Wind Speed Gust Speed Precip Events Conditions
12:14 AM 53.6 °F 50.0 °F 88% 29.99 in 10.0 mi Calm Calm - N/A   Clear
12:35 AM 51.8 °F 49.8 °F 93% 29.99 in 10.0 mi Calm Calm - N/A   Scattered Clouds
12:54 AM 52.0 °F 50.0 °F 93% 29.99 in 10.0 mi Calm Calm - N/A   Mostly Cloudy
1:14 AM 51.6 °F 49.5 °F 92% 29.99 in 10.0 mi Calm Calm - N/A   Mostly Cloudy
1:35 AM 51.4 °F 49.8 °F 94% 29.99 in 10.0 mi Calm Calm - N/A   Overcast
1:54 AM 50.7 °F 49.3 °F 95% 29.99 in 10.0 mi SSW 3.5 mph - N/A   Mostly Cloudy
2:14 AM 52.0 °F 50.5 °F 95% 29.99 in 10.0 mi Calm Calm - N/A   Mostly Cloudy
2:35 AM 51.1 °F 49.5 °F 94% 29.99 in 10.0 mi Calm Calm - N/A   Overcast
2:54 AM 51.6 °F 50.4 °F 95% 29.98 in 10.0 mi Calm Calm - N/A   Overcast
3:14 AM 52.9 °F 51.1 °F 94% 29.98 in 10.0 mi Calm Calm - N/A   Mostly Cloudy
3:35 AM 52.2 °F 50.9 °F 95% 29.98 in 10.0 mi Calm Calm - N/A   Scattered Clouds
3:54 AM 52.2 °F 50.4 °F 94% 29.97 in 10.0 mi Calm Calm - N/A   Mostly Cloudy
4:35 AM 52.0 °F 50.0 °F 93% 29.97 in 10.0 mi Calm Calm - N/A   Scattered Clouds
4:54 AM 51.3 °F 49.1 °F 92% 29.97 in 10.0 mi Calm Calm - N/A   Clear
5:14 AM 49.5 °F 47.8 °F 94% 29.97 in 10.0 mi Calm Calm - N/A   Clear
5:35 AM 50.5 °F 48.7 °F 94% 29.96 in 10.0 mi SSW 4.6 mph - N/A   Clear
5:54 AM 50.5 °F 48.6 °F 93% 29.97 in 10.0 mi SSW 5.8 mph - N/A   Clear
6:14 AM 50.5 °F 48.7 °F 94% 29.97 in 10.0 mi SW 3.5 mph - N/A   Clear
6:35 AM 49.8 °F 48.9 °F 97% 29.97 in 10.0 mi SW 4.6 mph - N/A   Clear
6:54 AM 48.9 °F 48.4 °F 98% 29.97 in 10.0 mi Calm Calm - N/A   Clear
7:15 AM 49.1 °F 48.4 °F 97% 29.98 in 10.0 mi SW 3.5 mph - N/A   Clear
7:34 AM 50.4 °F 49.5 °F 97% 29.98 in 10.0 mi Calm Calm - N/A   Clear
7:54 AM 53.6 °F 51.4 °F 92% 29.98 in 10.0 mi Calm Calm - N/A   Clear
8:15 AM 55.4 °F 52.7 °F 91% 29.98 in 10.0 mi Calm Calm - N/A   Clear
8:34 AM 56.8 °F 53.6 °F 89% 29.98 in 10.0 mi WSW 3.5 mph - N/A   Clear
8:54 AM 58.1 °F 54.1 °F 87% 29.98 in 10.0 mi SW 6.9 mph - N/A   Clear
9:15 AM 59.5 °F 54.5 °F 83% 29.98 in 10.0 mi Calm Calm - N/A   Clear
9:34 AM 61.3 °F 55.6 °F 81% 29.98 in 10.0 mi SSW 4.6 mph - N/A   Clear
9:54 AM 63.3 °F 56.3 °F 78% 29.98 in 10.0 mi SSW 5.8 mph - N/A   Clear
10:10 AM 64.8 °F 55.6 °F 72% 29.99 in 10.0 mi WSW 3.5 mph - N/A   Clear
10:36 AM 66.2 °F 57.2 °F 73% 29.99 in 10.0 mi SW 4.6 mph - N/A   Clear
10:56 AM 66.2 °F 55.4 °F 68% 29.99 in 10.0 mi SSW 3.5 mph - N/A   Clear
11:06 AM 68.2 °F 56.3 °F 66% 29.99 in 10.0 mi West 6.9 mph - N/A   Clear
11:09 AM 68.9 °F 56.5 °F 65% 29.99 in 10.0 mi West 6.9 mph - N/A   Clear
11:36 AM 69.8 °F 55.4 °F 60% 29.99 in 10.0 mi West 5.8 mph - N/A   Clear
11:56 AM 71.6 °F 53.6 °F 53% 29.99 in 10.0 mi West 5.8 mph - N/A   Clear
12:19 PM 71.6 °F 51.8 °F 50% 29.99 in 10.0 mi West 5.8 mph - N/A   Clear
12:36 PM 71.6 °F 50.0 °F 46% 29.99 in 10.0 mi NNW 4.6 mph - N/A   Clear
12:56 PM 73.4 °F 51.8 °F 47% 29.99 in 10.0 mi West 9.2 mph - N/A   Clear
1:16 PM 75.2 °F 51.8 °F 44% 30.00 in 10.0 mi WNW 8.1 mph - N/A   Clear
1:36 PM 73.4 °F 51.8 °F 47% 30.00 in 10.0 mi West 5.8 mph - N/A   Scattered Clouds
1:58 PM 73.4 °F 51.8 °F 47% 29.99 in 10.0 mi West 6.9 mph - N/A   Scattered Clouds
2:16 PM 73.4 °F 53.6 °F 50% 29.99 in 10.0 mi West 4.6 mph - N/A   Scattered Clouds
2:36 PM 74.5 °F 54.0 °F 49% 29.99 in 10.0 mi West 5.8 mph - N/A   Scattered Clouds
2:54 PM 75.0 °F 53.8 °F 47% 29.99 in 10.0 mi WSW 4.6 mph - N/A   Mostly Cloudy
3:15 PM 75.7 °F 54.0 °F 47% 29.99 in 10.0 mi West 8.1 mph - N/A   Mostly Cloudy
3:32 PM 73.8 °F 53.8 °F 50% 29.99 in 10.0 mi West 10.4 mph 16.1 mph N/A   Overcast
3:54 PM 73.4 °F 54.5 °F 51% 29.99 in 10.0 mi West 10.4 mph 17.3 mph N/A   Mostly Cloudy
4:15 PM 75.7 °F 52.3 °F 44% 29.98 in 10.0 mi West 11.5 mph - N/A   Clear
4:34 PM 75.6 °F 53.6 °F 46% 29.98 in 10.0 mi WNW 10.4 mph - N/A   Scattered Clouds
4:54 PM 75.9 °F 50.5 °F 41% 29.98 in 10.0 mi WNW 10.4 mph - N/A   Scattered Clouds
5:15 PM 75.0 °F 50.7 °F 42% 29.99 in 10.0 mi West 8.1 mph - N/A   Clear
5:34 PM 75.0 °F 51.4 °F 44% 29.99 in 10.0 mi West 9.2 mph - N/A   Scattered Clouds
5:55 PM 75.4 °F 52.7 °F 45% 29.99 in 10.0 mi WSW 6.9 mph - N/A   Scattered Clouds
6:14 PM 74.8 °F 53.1 °F 47% 29.99 in 10.0 mi West 9.2 mph - N/A   Scattered Clouds
6:34 PM 74.5 °F 51.4 °F 44% 29.99 in 10.0 mi West 10.4 mph - N/A   Clear
6:55 PM 73.6 °F 52.3 °F 47% 29.99 in 10.0 mi West 5.8 mph - N/A   Clear
7:14 PM 72.7 °F 52.0 °F 48% 29.99 in 10.0 mi WSW 9.2 mph - N/A   Clear
7:34 PM 71.8 °F 52.0 °F 50% 30.00 in 10.0 mi WSW 9.2 mph - N/A   Clear
8:14 PM 69.8 °F 53.6 °F 56% 30.00 in 10.0 mi WSW 3.5 mph - N/A   Clear
8:34 PM 68.2 °F 54.0 °F 60% 30.00 in 10.0 mi West 3.5 mph - N/A   Clear
9:14 PM 64.0 °F 54.7 °F 72% 30.00 in 10.0 mi SW 3.5 mph - N/A   Clear
9:34 PM 62.4 °F 54.9 °F 76% 30.01 in 10.0 mi Calm Calm - N/A   Clear
10:14 PM 57.4 °F 53.6 °F 87% 30.03 in 10.0 mi Calm Calm - N/A   Clear
10:34 PM 57.4 °F 54.0 °F 88% 30.03 in 10.0 mi Calm Calm - N/A   Clear
11:14 PM 55.9 °F 53.4 °F 91% 30.02 in 10.0 mi Calm Calm - N/A   Clear
11:34 PM 55.8 °F 53.6 °F 92% 30.02 in 10.0 mi Calm Calm - N/A   Clear
11:55 PM 54.3 °F 52.5 °F 94% 30.02 in 10.0 mi Calm Calm - N/A   Clear